Location: Allos
(44.2333°N, 6.6333°E)
Time: 06:10:12
(UTC+00:00)

USA 238 - Pass Details

Date: 01 December 2020
Orbit: 996 x 1216 km, 63.4° (Epoch: 22 January)

Event Time Altitude Azimuth Distance (km) Brightness Sun altitude
Rises 17:01:05 0° 180° (S) 3,705 6.8 -11.4°
Reaches altitude 10° 17:03:56 10° 170° (S) 2,772 6.0 -11.9°
Maximum altitude 17:09:26 30° 112° (ESE) 1,755 4.4 -12.8°
Enters shadow 17:13:13 18° 66° (ENE) 2,332 4.8 -13.5°
